When you browse on this site, cookies collect data to enhance your experience and personalize the content and advertising you see.
Visit our Privacy Policy to learn more. By continuing to use the site, you agree to this use of cookies and data.
  • In Deutschland
  • Länderverzeichnis
  • Für 7 Tage
  • Wassertemperatur
  • Wetterkarte
  • Widgets
  • user-avatar
    Anmelden

    Stündliche Wetter Reutinskoe

    Heute, 16 Oktober, Mittwoch

    Zeit Temperatur Niederschläge Wind Luftdruck Luftfeuchtigkeit
    00:00 +3°C° 0 mm 2 m/S 745 mmHg 92%
    01:00 +2°C° 0 mm 3 m/S 745 mmHg 93%
    02:00 +1°C° 0 mm 3 m/S 746 mmHg 93%
    03:00 +1°C° 0 mm 3 m/S 746 mmHg 92%
    04:00 +1°C° 0 mm 3 m/S 746 mmHg 92%
    05:00 -1°C° 0 mm 4 m/S 747 mmHg 92%
    06:00 -1°C° 0 mm 4 m/S 747 mmHg 92%
    07:00 -1°C° 0 mm 4 m/S 747 mmHg 91%
    08:00 -1°C° 0 mm 4 m/S 748 mmHg 92%
    09:00 0°C° 0 mm 4 m/S 748 mmHg 93%
    10:00 0°C° 0 mm 5 m/S 748 mmHg 94%
    11:00 0°C° 0.2 mm 5 m/S 749 mmHg 94%
    12:00 0°C° 0.2 mm 5 m/S 749 mmHg 95%
    13:00 0°C° 0.2 mm 5 m/S 749 mmHg 95%
    14:00 +1°C° 0 mm 5 m/S 750 mmHg 92%
    15:00 +1°C° 0 mm 5 m/S 751 mmHg 89%
    16:00 +1°C° 0 mm 5 m/S 751 mmHg 86%
    17:00 +1°C° 0 mm 5 m/S 752 mmHg 86%
    18:00 0°C° 0 mm 5 m/S 752 mmHg 86%
    19:00 0°C° 0 mm 4 m/S 753 mmHg 86%
    20:00 0°C° 0 mm 5 m/S 753 mmHg 87%
    21:00 0°C° 0 mm 5 m/S 754 mmHg 88%
    22:00 0°C° 0 mm 5 m/S 754 mmHg 89%
    23:00 0°C° 0.1 mm 5 m/S 754 mmHg 89%

    Morgen, 17 Oktober, Donnerstag

    Zeit Temperatur Niederschläge Wind Luftdruck Luftfeuchtigkeit
    00:00 -1°C° 0.1 mm 5 m/S 755 mmHg 89%
    01:00 -1°C° 0.1 mm 5 m/S 755 mmHg 89%
    02:00 -1°C° 0 mm 5 m/S 756 mmHg 88%
    03:00 -2°C° 0 mm 5 m/S 756 mmHg 86%
    04:00 -2°C° 0 mm 4 m/S 757 mmHg 84%
    05:00 -2°C° 0 mm 4 m/S 757 mmHg 84%
    06:00 -2°C° 0 mm 4 m/S 757 mmHg 85%
    07:00 -2°C° 0 mm 4 m/S 758 mmHg 85%
    08:00 -1°C° 0 mm 4 m/S 758 mmHg 80%
    09:00 0°C° 0 mm 4 m/S 758 mmHg 76%
    10:00 0°C° 0 mm 5 m/S 758 mmHg 72%
    11:00 +1°C° 0 mm 5 m/S 758 mmHg 70%
    12:00 +1°C° 0 mm 5 m/S 758 mmHg 69%
    13:00 +1°C° 0 mm 5 m/S 759 mmHg 68%
    14:00 0°C° 0 mm 4 m/S 759 mmHg 69%
    15:00 0°C° 0 mm 4 m/S 759 mmHg 70%
    16:00 +1°C° 0 mm 3 m/S 759 mmHg 70%
    17:00 0°C° 0 mm 3 m/S 759 mmHg 73%
    18:00 +1°C° 0 mm 2 m/S 758 mmHg 76%
    19:00 -1°C° 0 mm 2 m/S 758 mmHg 79%
    20:00 -1°C° 0 mm 2 m/S 758 mmHg 81%
    21:00 -1°C° 0 mm 2 m/S 758 mmHg 82%
    22:00 -1°C° 0 mm 2 m/S 758 mmHg 84%
    23:00 -1°C° 0.2 mm 2 m/S 757 mmHg 89%

    übermorgen, 18 Oktober, Freitag

    Zeit Temperatur Niederschläge Wind Luftdruck Luftfeuchtigkeit
    00:00 -1°C° 0.2 mm 2 m/S 757 mmHg 93%
    01:00 -1°C° 0.2 mm 2 m/S 756 mmHg 97%
    02:00 -1°C° 0.3 mm 2 m/S 756 mmHg 97%
    03:00 -1°C° 0.3 mm 2 m/S 755 mmHg 97%
    04:00 -1°C° 0.3 mm 2 m/S 755 mmHg 97%
    05:00 -1°C° 0.2 mm 3 m/S 754 mmHg 97%
    06:00 -1°C° 0.2 mm 3 m/S 754 mmHg 97%
    07:00 -1°C° 0.2 mm 3 m/S 753 mmHg 97%
    08:00 +1°C° 0.2 mm 2 m/S 753 mmHg 97%
    09:00 +1°C° 0.2 mm 2 m/S 752 mmHg 97%
    10:00 +1°C° 0.2 mm 2 m/S 752 mmHg 97%
    11:00 0°C° 0.5 mm 3 m/S 752 mmHg 97%
    12:00 0°C° 0.5 mm 3 m/S 752 mmHg 98%
    13:00 -1°C° 0.5 mm 4 m/S 752 mmHg 98%
    14:00 -1°C° 0.5 mm 4 m/S 752 mmHg 98%
    15:00 -1°C° 0.5 mm 4 m/S 753 mmHg 97%
    16:00 -1°C° 0.5 mm 5 m/S 753 mmHg 97%
    17:00 -1°C° 0.1 mm 5 m/S 754 mmHg 96%
    18:00 -2°C° 0.1 mm 5 m/S 754 mmHg 94%
    19:00 -2°C° 0.1 mm 5 m/S 755 mmHg 92%
    20:00 -2°C° 0 mm 5 m/S 756 mmHg 91%
    21:00 -4°C° 0 mm 5 m/S 757 mmHg 90%
    22:00 -4°C° 0 mm 5 m/S 757 mmHg 88%
    23:00 -4°C° 0 mm 5 m/S 758 mmHg 87%

    19 Oktober, Samstag

    Zeit Temperatur Niederschläge Wind Luftdruck Luftfeuchtigkeit
    00:00 -4°C° 0 mm 5 m/S 759 mmHg 86%
    01:00 -4°C° 0 mm 4 m/S 759 mmHg 84%
    02:00 -5°C° 0 mm 4 m/S 760 mmHg 86%
    03:00 -5°C° 0 mm 4 m/S 760 mmHg 88%
    04:00 -6°C° 0 mm 3 m/S 761 mmHg 90%
    05:00 -6°C° 0 mm 3 m/S 761 mmHg 90%
    06:00 -6°C° 0 mm 3 m/S 762 mmHg 90%
    07:00 -7°C° 0 mm 3 m/S 762 mmHg 91%
    08:00 -6°C° 0 mm 3 m/S 763 mmHg 86%
    09:00 -5°C° 0 mm 3 m/S 763 mmHg 82%
    10:00 -4°C° 0 mm 3 m/S 764 mmHg 77%
    11:00 -2°C° 0 mm 3 m/S 764 mmHg 75%
    12:00 -2°C° 0 mm 2 m/S 764 mmHg 72%
    13:00 -2°C° 0 mm 2 m/S 764 mmHg 69%
    14:00 -2°C° 0 mm 2 m/S 764 mmHg 72%
    15:00 0°C° 0 mm 1 m/S 765 mmHg 75%
    16:00 -1°C° 0 mm 1 m/S 765 mmHg 77%
    17:00 -1°C° 0 mm 1 m/S 765 mmHg 79%
    18:00 -2°C° 0 mm 1 m/S 766 mmHg 80%
    19:00 -3°C° 0 mm 0 m/S 766 mmHg 82%
    20:00 -3°C° 0 mm 0 m/S 766 mmHg 82%
    21:00 -3°C° 0 mm 0 m/S 766 mmHg 82%
    22:00 -2°C° 0 mm 1 m/S 767 mmHg 82%
    23:00 -2°C° 0 mm 1 m/S 767 mmHg 83%

    20 Oktober, Sonntag

    Zeit Temperatur Niederschläge Wind Luftdruck Luftfeuchtigkeit
    00:00 -2°C° 0 mm 1 m/S 767 mmHg 84%
    01:00 -5°C° 0 mm 2 m/S 767 mmHg 85%
    02:00 -5°C° 0 mm 2 m/S 767 mmHg 86%
    03:00 -5°C° 0 mm 2 m/S 767 mmHg 87%
    04:00 -5°C° 0 mm 2 m/S 767 mmHg 88%
    05:00 -5°C° 0 mm 2 m/S 767 mmHg 88%
    06:00 -5°C° 0 mm 2 m/S 767 mmHg 88%
    07:00 -5°C° 0 mm 2 m/S 767 mmHg 89%
    08:00 -5°C° 0 mm 3 m/S 767 mmHg 84%
    09:00 -4°C° 0 mm 4 m/S 766 mmHg 79%
    10:00 -3°C° 0 mm 4 m/S 766 mmHg 74%
    11:00 -2°C° 0 mm 5 m/S 766 mmHg 73%
    12:00 -2°C° 0 mm 5 m/S 765 mmHg 72%
    13:00 -1°C° 0 mm 5 m/S 765 mmHg 71%
    14:00 -1°C° 0 mm 5 m/S 765 mmHg 73%
    15:00 -2°C° 0 mm 5 m/S 764 mmHg 75%
    16:00 -2°C° 0 mm 4 m/S 764 mmHg 77%
    17:00 -2°C° 0 mm 4 m/S 764 mmHg 78%
    18:00 -2°C° 0 mm 5 m/S 763 mmHg 79%
    19:00 -4°C° 0 mm 5 m/S 763 mmHg 80%
    20:00 -4°C° 0 mm 5 m/S 763 mmHg 80%
    21:00 -4°C° 0 mm 5 m/S 762 mmHg 80%
    22:00 -4°C° 0 mm 5 m/S 762 mmHg 81%
    23:00 -2°C° 0 mm 5 m/S 761 mmHg 79%

    21 Oktober, Montag

    Zeit Temperatur Niederschläge Wind Luftdruck Luftfeuchtigkeit
    00:00 -2°C° 0 mm 5 m/S 761 mmHg 77%
    01:00 -2°C° 0 mm 5 m/S 761 mmHg 76%
    02:00 -2°C° 0.5 mm 5 m/S 760 mmHg 82%
    03:00 -2°C° 0.5 mm 5 m/S 760 mmHg 89%
    04:00 -2°C° 0.5 mm 5 m/S 760 mmHg 96%
    05:00 -2°C° 1.2 mm 5 m/S 759 mmHg 96%
    06:00 -2°C° 1.2 mm 5 m/S 759 mmHg 97%
    07:00 -1°C° 1.2 mm 5 m/S 759 mmHg 98%
    08:00 -1°C° 1 mm 5 m/S 759 mmHg 98%
    09:00 -1°C° 1 mm 5 m/S 759 mmHg 98%
    10:00 -1°C° 1 mm 5 m/S 758 mmHg 98%
    11:00 0°C° 0.6 mm 4 m/S 758 mmHg 98%
    12:00 0°C° 0.6 mm 4 m/S 758 mmHg 98%
    13:00 0°C° 0.6 mm 4 m/S 758 mmHg 98%
    14:00 +1°C° 0.1 mm 3 m/S 758 mmHg 98%
    15:00 +1°C° 0.1 mm 3 m/S 758 mmHg 98%
    16:00 +2°C° 0.1 mm 2 m/S 759 mmHg 98%
    17:00 +2°C° 0 mm 2 m/S 759 mmHg 97%
    18:00 +2°C° 0 mm 2 m/S 759 mmHg 97%
    19:00 +2°C° 0 mm 2 m/S 760 mmHg 96%
    20:00 +3°C° 0.1 mm 1 m/S 760 mmHg 97%
    21:00 +3°C° 0.1 mm 1 m/S 760 mmHg 97%
    22:00 +3°C° 0.1 mm 1 m/S 760 mmHg 97%
    23:00 +2°C° 0 mm 0 m/S 760 mmHg 97%
    Mehr zeigen